Time,TemperatureF,DewpointF,PressureIn,WindDirection,WindDirectionDegrees,WindSpeedMPH,WindSpeedGustMPH,Humidity,HourlyPrecipIn,Conditions,Clouds,dailyrainin,SoftwareType,DateUTC
2013-05-06 00:00:00,49.6,33.7,30.03,South,184,6.0,9.0,54,0.00,CLR,CLR,0.00,WeatherDisplay:10.37,2013-05-05 23:00:00,
2013-05-06 00:10:00,49.5,34.0,30.03,South,178,5.0,8.0,55,0.00,CLR,CLR,0.00,WeatherDisplay:10.37,2013-05-05 23:10:00,
2013-05-06 00:20:00,49.1,33.6,30.03,South,179,3.0,8.0,55,0.00,CLR,CLR,0.00,WeatherDisplay:10.37,2013-05-05 23:20:00,
2013-05-06 00:30:00,49.1,34.1,30.03,South,188,3.0,9.0,56,0.00,CLR,CLR,0.00,WeatherDisplay:10.37,2013-05-05 23:30:00,
2013-05-06 00:40:00,49.1,34.1,30.03,South,184,3.0,8.0,56,0.00,CLR,CLR,0.00,WeatherDisplay:10.37,2013-05-05 23:40:00,
2013-05-06 00:50:00,49.1,34.1,30.03,SSW,193,6.0,8.0,56,0.00,CLR,CLR,0.00,WeatherDisplay:10.37,2013-05-05 23:50:00,
2013-05-06 01:00:00,49.1,34.5,30.03,SSW,200,3.0,11.0,57,0.00,CLR,CLR,0.00,WeatherDisplay:10.37,2013-05-06 00:00:00,
2013-05-06 01:10:00,49.0,34.0,30.00,SSW,192,3.0,6.0,56,0.00,CLR,CLR,0.00,WeatherDisplay:10.37,2013-05-06 00:10:00,
2013-05-06 01:20:00,48.7,33.7,30.00,South,188,5.0,8.0,56,0.00,CLR,CLR,0.00,WeatherDisplay:10.37,2013-05-06 00:20:00,
2013-05-06 01:30:00,48.6,33.6,30.00,South,190,1.0,6.0,56,0.00,CLR,CLR,0.00,WeatherDisplay:10.37,2013-05-06 00:30:00,
2013-05-06 01:40:00,48.4,32.9,30.03,SSW,195,2.0,6.0,55,0.00,CLR,CLR,0.00,WeatherDisplay:10.37,2013-05-06 00:40:00,
2013-05-06 01:50:00,48.0,33.0,30.03,South,169,1.0,6.0,56,0.00,CLR,CLR,0.00,WeatherDisplay:10.37,2013-05-06 00:50:00,
2013-05-06 02:00:00,47.7,32.7,30.00,SSE,159,3.0,8.0,56,0.00,CLR,CLR,0.00,WeatherDisplay:10.37,2013-05-06 01:00:00,
2013-05-06 02:10:00,47.5,32.6,30.03,South,174,3.0,7.0,56,0.00,CLR,CLR,0.00,WeatherDisplay:10.37,2013-05-06 01:10:00,
2013-05-06 02:20:00,47.1,32.2,30.03,SSE,156,0.0,6.0,56,0.00,CLR,CLR,0.00,WeatherDisplay:10.37,2013-05-06 01:20:00,
2013-05-06 02:30:00,46.8,31.9,30.00,South,173,0.0,6.0,56,0.00,CLR,CLR,0.00,WeatherDisplay:10.37,2013-05-06 01:30:00,
2013-05-06 02:40:00,46.6,31.7,30.00,South,179,0.0,4.0,56,0.00,CLR,CLR,0.00,WeatherDisplay:10.37,2013-05-06 01:40:00,
2013-05-06 02:50:00,46.6,31.7,30.00,SSW,194,0.0,0.0,56,0.00,CLR,CLR,0.00,WeatherDisplay:10.37,2013-05-06 01:50:00,
2013-05-06 03:00:00,46.5,32.1,30.00,SSW,202,2.0,6.0,57,0.00,CLR,CLR,0.00,WeatherDisplay:10.37,2013-05-06 02:00:00,
2013-05-06 03:10:00,46.9,32.9,30.00,SSW,203,3.0,6.0,58,0.00,CLR,CLR,0.00,WeatherDisplay:10.37,2013-05-06 02:10:00,
2013-05-06 03:20:00,47.1,33.5,30.00,SSW,200,2.0,8.0,59,0.00,CLR,CLR,0.00,WeatherDisplay:10.37,2013-05-06 02:20:00,
2013-05-06 03:30:00,46.9,32.9,30.00,SSW,198,0.0,4.0,58,0.00,CLR,CLR,0.00,WeatherDisplay:10.37,2013-05-06 02:30:00,
2013-05-06 03:40:00,46.8,33.2,30.00,SSW,198,0.0,6.0,59,0.00,CLR,CLR,0.00,WeatherDisplay:10.37,2013-05-06 02:40:00,
2013-05-06 03:50:00,46.6,33.0,30.00,SSW,193,2.0,6.0,59,0.00,CLR,CLR,0.00,WeatherDisplay:10.37,2013-05-06 02:50:00,
2013-05-06 04:00:00,46.4,32.8,30.00,South,189,2.0,6.0,59,0.00,CLR,CLR,0.00,WeatherDisplay:10.37,2013-05-06 03:00:00,
2013-05-06 04:10:00,46.4,33.3,30.00,South,190,2.0,6.0,60,0.00,CLR,CLR,0.00,WeatherDisplay:10.37,2013-05-06 03:10:00,
2013-05-06 04:20:00,46.6,33.4,30.00,South,188,2.0,8.0,60,0.00,CLR,CLR,0.00,WeatherDisplay:10.37,2013-05-06 03:20:00,
2013-05-06 04:30:00,46.6,33.8,30.00,South,177,3.0,8.0,61,0.00,CLR,CLR,0.00,WeatherDisplay:10.37,2013-05-06 03:30:00,
2013-05-06 04:40:00,46.8,34.5,30.00,South,186,6.0,8.0,62,0.00,CLR,CLR,0.00,WeatherDisplay:10.37,2013-05-06 03:40:00,
2013-05-06 04:50:00,47.1,35.2,30.00,South,180,6.0,8.0,63,0.00,CLR,CLR,0.00,WeatherDisplay:10.37,2013-05-06 03:50:00,
2013-05-06 05:00:00,47.5,36.3,30.00,SSW,193,3.0,9.0,65,0.00,CLR,CLR,0.00,WeatherDisplay:10.37,2013-05-06 04:00:00,
2013-05-06 05:05:00,47.5,35.9,30.00,SSW,198,3.0,6.0,64,0.00,CLR,CLR,0.00,WeatherDisplay:10.37,2013-05-06 04:05:00,
2013-05-06 05:10:00,47.6,36.0,30.00,SSW,199,2.0,6.0,64,0.00,CLR,CLR,0.00,WeatherDisplay:10.37,2013-05-06 04:10:00,
2013-05-06 05:20:00,47.8,36.6,30.00,SSW,198,3.0,9.0,65,0.00,CLR,CLR,0.00,WeatherDisplay:10.37,2013-05-06 04:20:00,
2013-05-06 05:30:00,48.0,36.8,30.00,SSW,192,6.0,8.0,65,0.00,CLR,CLR,0.00,WeatherDisplay:10.37,2013-05-06 04:30:00,
2013-05-06 05:40:00,48.0,36.8,30.00,South,191,2.0,6.0,65,0.00,CLR,CLR,0.00,WeatherDisplay:10.37,2013-05-06 04:40:00,
2013-05-06 05:50:00,48.2,37.0,30.00,SSW,199,5.0,8.0,65,0.00,CLR,CLR,0.00,WeatherDisplay:10.37,2013-05-06 04:50:00,
2013-05-06 06:00:00,48.2,37.0,30.00,SSW,192,3.0,10.0,65,0.00,CLR,CLR,0.00,WeatherDisplay:10.37,2013-05-06 05:00:00,
2013-05-06 06:05:00,48.4,37.2,30.00,SSW,194,3.0,9.0,65,0.00,CLR,CLR,0.00,WeatherDisplay:10.37,2013-05-06 05:05:00,
2013-05-06 06:10:00,48.4,36.8,30.00,SSW,196,5.0,9.0,64,0.00,CLR,CLR,0.00,WeatherDisplay:10.37,2013-05-06 05:10:00,
2013-05-06 06:15:00,48.4,36.8,30.00,SSW,196,7.0,12.0,64,0.00,CLR,CLR,0.00,WeatherDisplay:10.37,2013-05-06 05:15:00,
2013-05-06 06:20:00,48.4,36.8,30.00,SSW,195,5.0,8.0,64,0.00,CLR,CLR,0.00,WeatherDisplay:10.37,2013-05-06 05:20:00,
2013-05-06 06:30:00,48.6,36.9,30.00,SSW,199,6.0,11.0,64,0.00,CLR,CLR,0.00,WeatherDisplay:10.37,2013-05-06 05:30:00,
2013-05-06 06:40:00,48.7,36.3,30.00,SSW,194,5.0,8.0,62,0.00,CLR,CLR,0.00,WeatherDisplay:10.37,2013-05-06 05:40:00,
2013-05-06 06:50:00,48.7,35.9,30.00,SSW,192,5.0,8.0,61,0.00,CLR,CLR,0.00,WeatherDisplay:10.37,2013-05-06 05:50:00,
2013-05-06 07:00:00,48.8,35.1,30.00,SSW,193,7.0,12.0,59,0.00,CLR,CLR,0.00,WeatherDisplay:10.37,2013-05-06 06:00:00,
2013-05-06 07:10:00,49.1,34.9,30.00,SSW,192,6.0,8.0,58,0.00,CLR,CLR,0.00,WeatherDisplay:10.37,2013-05-06 06:10:00,
2013-05-06 07:20:00,49.1,34.9,30.00,South,188,3.0,8.0,58,0.00,CLR,CLR,0.00,WeatherDisplay:10.37,2013-05-06 06:20:00,
2013-05-06 07:30:00,49.3,34.7,30.00,SSW,195,5.0,8.0,57,0.00,CLR,CLR,0.00,WeatherDisplay:10.37,2013-05-06 06:30:00,
2013-05-06 07:40:00,49.5,34.4,30.00,SSW,204,3.0,8.0,56,0.00,CLR,CLR,0.00,WeatherDisplay:10.37,2013-05-06 06:40:00,
2013-05-06 07:50:00,49.6,34.1,30.00,South,186,5.0,8.0,55,0.00,CLR,CLR,0.00,WeatherDisplay:10.37,2013-05-06 06:50:00,
2013-05-06 08:00:00,49.8,33.8,30.00,South,190,6.0,9.0,54,0.00,CLR,CLR,0.00,WeatherDisplay:10.37,2013-05-06 07:00:00,
2013-05-06 08:10:00,50.2,33.7,30.00,SSE,164,6.0,8.0,53,0.00,CLR,CLR,0.00,WeatherDisplay:10.37,2013-05-06 07:10:00,
2013-05-06 08:20:00,50.2,33.2,30.00,South,186,5.0,10.0,52,0.00,CLR,CLR,0.00,WeatherDisplay:10.37,2013-05-06 07:20:00,
2013-05-06 08:30:00,50.4,32.4,30.00,SSW,200,6.0,11.0,50,0.00,CLR,CLR,0.00,WeatherDisplay:10.37,2013-05-06 07:30:00,
2013-05-06 08:40:00,50.5,32.6,30.00,SSW,192,6.0,11.0,50,0.00,CLR,CLR,0.00,WeatherDisplay:10.37,2013-05-06 07:40:00,
2013-05-06 08:50:00,50.7,32.2,30.00,South,187,8.0,12.0,49,0.00,CLR,CLR,0.00,WeatherDisplay:10.37,2013-05-06 07:50:00,
2013-05-06 09:00:00,50.9,32.4,30.00,South,185,6.0,11.0,49,0.00,CLR,CLR,0.00,WeatherDisplay:10.37,2013-05-06 08:00:00,
2013-05-06 09:10:00,51.1,32.1,30.00,South,188,5.0,10.0,48,0.00,CLR,CLR,0.00,WeatherDisplay:10.37,2013-05-06 08:10:00,
2013-05-06 09:20:00,51.1,32.1,30.00,SSW,197,6.0,9.0,48,0.00,CLR,CLR,0.00,WeatherDisplay:10.37,2013-05-06 08:20:00,
2013-05-06 09:30:00,50.9,31.9,30.00,South,189,6.0,12.0,48,0.00,CLR,CLR,0.00,WeatherDisplay:10.37,2013-05-06 08:30:00,
2013-05-06 09:40:00,50.7,31.7,30.00,SSW,200,5.0,8.0,48,0.00,CLR,CLR,0.00,WeatherDisplay:10.37,2013-05-06 08:40:00,
2013-05-06 09:50:00,50.7,31.7,30.00,SSW,197,9.0,13.0,48,0.00,CLR,CLR,0.00,WeatherDisplay:10.37,2013-05-06 08:50:00,
2013-05-06 10:00:00,50.9,31.9,30.00,SSW,199,5.0,8.0,48,0.00,CLR,CLR,0.00,WeatherDisplay:10.37,2013-05-06 09:00:00,
2013-05-06 10:10:00,51.7,33.1,30.03,SSW,194,5.0,10.0,49,0.00,CLR,CLR,0.00,WeatherDisplay:10.37,2013-05-06 09:10:00,
2013-05-06 10:20:00,52.2,32.5,30.03,South,185,6.0,9.0,47,0.00,CLR,CLR,0.00,WeatherDisplay:10.37,2013-05-06 09:20:00,
2013-05-06 10:30:00,52.3,32.2,30.03,SSW,196,8.0,12.0,46,0.00,CLR,CLR,0.00,WeatherDisplay:10.37,2013-05-06 09:30:00,
2013-05-06 10:40:00,52.3,31.0,30.03,SSW,199,8.0,13.0,44,0.00,CLR,CLR,0.00,WeatherDisplay:10.37,2013-05-06 09:40:00,
2013-05-06 10:50:00,52.3,31.6,30.03,SSW,197,9.0,15.0,45,0.00,CLR,CLR,0.00,WeatherDisplay:10.37,2013-05-06 09:50:00,
2013-05-06 11:00:00,52.5,32.3,30.03,SSW,202,9.0,15.0,46,0.00,CLR,CLR,0.00,WeatherDisplay:10.37,2013-05-06 10:00:00,
2013-05-06 11:05:00,52.9,32.6,30.03,SSW,199,7.0,13.0,46,0.00,CLR,CLR,0.00,WeatherDisplay:10.37,2013-05-06 10:05:00,
2013-05-06 11:10:00,53.1,31.7,30.03,SSW,198,10.0,14.0,44,0.00,CLR,CLR,0.00,WeatherDisplay:10.37,2013-05-06 10:10:00,
2013-05-06 11:20:00,53.1,31.7,30.03,SSW,197,6.0,15.0,44,0.00,CLR,CLR,0.00,WeatherDisplay:10.37,2013-05-06 10:20:00,
2013-05-06 11:30:00,53.4,31.5,30.03,SSW,199,6.0,13.0,43,0.00,CLR,CLR,0.00,WeatherDisplay:10.37,2013-05-06 10:30:00,
2013-05-06 11:40:00,53.6,31.0,30.03,SSW,192,6.0,12.0,42,0.00,CLR,CLR,0.00,WeatherDisplay:10.37,2013-05-06 10:40:00,
2013-05-06 11:50:00,54.3,31.1,30.03,South,186,8.0,13.0,41,0.00,CLR,CLR,0.00,WeatherDisplay:10.37,2013-05-06 10:50:00,
2013-05-06 12:00:00,54.3,29.9,30.03,SSW,200,6.0,10.0,39,0.00,CLR,CLR,0.00,WeatherDisplay:10.37,2013-05-06 11:00:00,
2013-05-06 12:05:00,54.5,30.0,30.03,SSW,194,8.0,12.0,39,0.00,CLR,CLR,0.00,WeatherDisplay:10.37,2013-05-06 11:05:00,
2013-05-06 12:10:00,54.7,30.2,30.03,SSW,196,7.0,12.0,39,0.00,CLR,CLR,0.00,WeatherDisplay:10.37,2013-05-06 11:10:00,
2013-05-06 12:20:00,55.0,31.1,30.03,SSW,193,6.0,9.0,40,0.00,CLR,CLR,0.00,WeatherDisplay:10.37,2013-05-06 11:20:00,
2013-05-06 12:30:00,54.9,31.0,30.03,SSW,196,7.0,11.0,40,0.00,CLR,CLR,0.00,WeatherDisplay:10.37,2013-05-06 11:30:00,
2013-05-06 12:40:00,54.9,30.4,30.03,SSW,201,7.0,15.0,39,0.00,CLR,CLR,0.00,WeatherDisplay:10.37,2013-05-06 11:40:00,
2013-05-06 12:50:00,55.9,29.9,30.03,SSW,203,6.0,12.0,37,0.00,CLR,CLR,0.00,WeatherDisplay:10.37,2013-05-06 11:50:00,
2013-05-06 13:00:00,56.5,29.8,30.03,SSW,198,9.0,13.0,36,0.00,CLR,CLR,0.00,WeatherDisplay:10.37,2013-05-06 12:00:00,
2013-05-06 13:10:00,56.8,29.4,30.03,SSW,197,8.0,15.0,35,0.00,CLR,CLR,0.00,WeatherDisplay:10.37,2013-05-06 12:10:00,
2013-05-06 13:20:00,55.9,28.7,30.03,SSW,201,6.0,11.0,35,0.00,CLR,CLR,0.00,WeatherDisplay:10.37,2013-05-06 12:20:00,
2013-05-06 13:30:00,55.6,29.0,30.03,South,190,8.0,12.0,36,0.00,CLR,CLR,0.00,WeatherDisplay:10.37,2013-05-06 12:30:00,
2013-05-06 13:40:00,55.2,29.4,30.03,SSW,206,8.0,11.0,37,0.00,CLR,CLR,0.00,WeatherDisplay:10.37,2013-05-06 12:40:00,
2013-05-06 13:50:00,54.5,29.4,30.03,South,187,6.0,10.0,38,0.00,CLR,CLR,0.00,WeatherDisplay:10.37,2013-05-06 12:50:00,
2013-05-06 14:00:00,54.3,29.2,30.03,SSW,197,7.0,12.0,38,0.00,CLR,CLR,0.00,WeatherDisplay:10.37,2013-05-06 13:00:00,
2013-05-06 14:05:00,54.3,29.9,30.03,SSW,204,8.0,13.0,39,0.00,CLR,CLR,0.00,WeatherDisplay:10.37,2013-05-06 13:05:00,
2013-05-06 14:10:00,54.3,29.9,30.03,SSW,201,7.0,9.0,39,0.00,CLR,CLR,0.00,WeatherDisplay:10.37,2013-05-06 13:10:00,
2013-05-06 14:20:00,54.5,30.0,30.03,SSW,192,7.0,13.0,39,0.00,CLR,CLR,0.00,WeatherDisplay:10.37,2013-05-06 13:20:00,
2013-05-06 14:30:00,54.7,30.2,30.03,South,190,7.0,9.0,39,0.00,CLR,CLR,0.00,WeatherDisplay:10.37,2013-05-06 13:30:00,
2013-05-06 14:40:00,55.4,30.2,30.03,SSW,209,8.0,13.0,38,0.00,CLR,CLR,0.00,WeatherDisplay:10.37,2013-05-06 13:40:00,
2013-05-06 14:50:00,55.9,29.3,30.03,SSW,196,9.0,13.0,36,0.00,CLR,CLR,0.00,WeatherDisplay:10.37,2013-05-06 13:50:00,
2013-05-06 15:00:00,55.9,29.3,30.03,SSW,197,6.0,12.0,36,0.00,CLR,CLR,0.00,WeatherDisplay:10.37,2013-05-06 14:00:00,
2013-05-06 15:10:00,56.3,29.7,30.03,SSW,201,6.0,13.0,36,0.00,CLR,CLR,0.00,WeatherDisplay:10.37,2013-05-06 14:10:00,
2013-05-06 15:20:00,55.6,29.1,30.03,South,190,5.0,13.0,36,0.00,CLR,CLR,0.00,WeatherDisplay:10.37,2013-05-06 14:20:00,
2013-05-06 15:30:00,55.8,29.9,30.03,SSW,195,6.0,15.0,37,0.00,CLR,CLR,0.00,WeatherDisplay:10.37,2013-05-06 14:30:00,
2013-05-06 15:40:00,55.8,29.2,30.03,SSW,194,8.0,10.0,36,0.00,CLR,CLR,0.00,WeatherDisplay:10.37,2013-05-06 14:40:00,
2013-05-06 15:50:00,55.4,29.5,30.03,SSW,195,6.0,11.0,37,0.00,CLR,CLR,0.00,WeatherDisplay:10.37,2013-05-06 14:50:00,
2013-05-06 16:00:00,55.2,29.4,30.03,SSW,194,7.0,13.0,37,0.00,CLR,CLR,0.00,WeatherDisplay:10.37,2013-05-06 15:00:00,
2013-05-06 16:05:00,55.2,29.4,30.03,SSW,198,6.0,10.0,37,0.00,CLR,CLR,0.00,WeatherDisplay:10.37,2013-05-06 15:05:00,
2013-05-06 16:10:00,54.9,29.1,30.03,SSW,199,10.0,15.0,37,0.00,CLR,CLR,0.00,WeatherDisplay:10.37,2013-05-06 15:10:00,
2013-05-06 16:20:00,55.4,30.2,30.03,SSW,199,7.0,13.0,38,0.00,CLR,CLR,0.00,WeatherDisplay:10.37,2013-05-06 15:20:00,
2013-05-06 16:30:00,55.2,29.3,30.03,SSW,194,7.0,13.0,37,0.00,CLR,CLR,0.00,WeatherDisplay:10.37,2013-05-06 15:30:00,
2013-05-06 16:40:00,54.5,29.4,30.03,South,182,7.0,12.0,38,0.00,CLR,CLR,0.00,WeatherDisplay:10.37,2013-05-06 15:40:00,
2013-05-06 16:50:00,54.0,28.9,30.03,South,180,6.0,10.0,38,0.00,CLR,CLR,0.00,WeatherDisplay:10.37,2013-05-06 15:50:00,
2013-05-06 17:00:00,54.1,29.7,30.03,SSW,196,9.0,14.0,39,0.00,CLR,CLR,0.00,WeatherDisplay:10.37,2013-05-06 16:00:00,
2013-05-06 17:10:00,54.8,30.3,30.00,SSW,195,7.0,9.0,39,0.00,CLR,CLR,0.00,WeatherDisplay:10.37,2013-05-06 16:10:00,
2013-05-06 17:20:00,55.2,30.0,30.00,SSW,195,5.0,13.0,38,0.00,CLR,CLR,0.00,WeatherDisplay:10.37,2013-05-06 16:20:00,
2013-05-06 17:30:00,55.9,30.0,30.00,South,190,9.0,13.0,37,0.00,CLR,CLR,0.00,WeatherDisplay:10.37,2013-05-06 16:30:00,
2013-05-06 17:40:00,56.3,30.4,30.00,SSW,192,8.0,10.0,37,0.00,CLR,CLR,0.00,WeatherDisplay:10.37,2013-05-06 16:40:00,
2013-05-06 17:50:00,57.9,30.4,30.00,SSW,192,7.0,12.0,35,0.00,CLR,CLR,0.00,WeatherDisplay:10.37,2013-05-06 16:50:00,
2013-05-06 18:00:00,58.8,28.2,30.00,South,186,8.0,13.0,31,0.00,CLR,CLR,0.00,WeatherDisplay:10.37,2013-05-06 17:00:00,
2013-05-06 18:05:00,58.6,27.2,30.00,South,169,7.0,11.0,30,0.00,CLR,CLR,0.00,WeatherDisplay:10.37,2013-05-06 17:05:00,
2013-05-06 18:10:00,58.1,27.6,30.00,South,182,6.0,10.0,31,0.00,CLR,CLR,0.00,WeatherDisplay:10.37,2013-05-06 17:10:00,
2013-05-06 18:20:00,58.8,27.4,30.00,SSW,195,7.0,13.0,30,0.00,CLR,CLR,0.00,WeatherDisplay:10.37,2013-05-06 17:20:00,
2013-05-06 18:30:00,58.1,26.8,30.00,South,189,5.0,8.0,30,0.00,CLR,CLR,0.00,WeatherDisplay:10.37,2013-05-06 17:30:00,
2013-05-06 18:40:00,56.8,26.5,30.03,South,187,3.0,8.0,31,0.00,CLR,CLR,0.00,WeatherDisplay:10.37,2013-05-06 17:40:00,
2013-05-06 18:50:00,56.3,28.3,30.03,South,184,7.0,8.0,34,0.00,CLR,CLR,0.00,WeatherDisplay:10.37,2013-05-06 17:50:00,
2013-05-06 19:00:00,56.5,29.1,30.03,South,188,6.0,8.0,35,0.00,CLR,CLR,0.00,WeatherDisplay:10.37,2013-05-06 18:00:00,
2013-05-06 19:05:00,56.1,28.1,30.03,South,190,6.0,10.0,34,0.00,CLR,CLR,0.00,WeatherDisplay:10.37,2013-05-06 18:05:00,
2013-05-06 19:10:00,55.6,28.4,30.03,South,186,6.0,11.0,35,0.00,CLR,CLR,0.00,WeatherDisplay:10.37,2013-05-06 18:10:00,
2013-05-06 19:20:00,54.9,28.4,30.03,South,190,6.0,12.0,36,0.00,CLR,CLR,0.00,WeatherDisplay:10.37,2013-05-06 18:20:00,
2013-05-06 19:30:00,54.2,27.8,30.03,SSW,193,6.0,12.0,36,0.00,CLR,CLR,0.00,WeatherDisplay:10.37,2013-05-06 18:30:00,
2013-05-06 19:40:00,53.8,28.1,30.00,SSW,193,6.0,9.0,37,0.00,CLR,CLR,0.00,WeatherDisplay:10.37,2013-05-06 18:40:00,
2013-05-06 19:50:00,53.4,28.4,30.00,South,190,7.0,9.0,38,0.00,CLR,CLR,0.00,WeatherDisplay:10.37,2013-05-06 18:50:00,
2013-05-06 20:01:00,53.1,28.1,30.03,SSW,202,3.0,8.0,38,0.00,CLR,CLR,0.00,WeatherDisplay:10.37,2013-05-06 19:01:00,
2013-05-06 20:10:00,52.6,27.7,30.03,SSW,196,3.0,6.0,38,0.00,CLR,CLR,0.00,WeatherDisplay:10.37,2013-05-06 19:10:00,
2013-05-06 20:15:00,52.5,27.6,30.03,SSW,199,3.0,6.0,38,0.00,CLR,CLR,0.00,WeatherDisplay:10.37,2013-05-06 19:15:00,
2013-05-06 20:20:00,52.3,28.1,30.03,SSW,199,2.0,7.0,39,0.00,CLR,CLR,0.00,WeatherDisplay:10.37,2013-05-06 19:20:00,
2013-05-06 20:30:00,52.2,27.9,30.03,SSW,193,3.0,6.0,39,0.00,CLR,CLR,0.00,WeatherDisplay:10.37,2013-05-06 19:30:00,
2013-05-06 20:40:00,51.7,28.1,30.03,SSW,196,3.0,6.0,40,0.00,CLR,CLR,0.00,WeatherDisplay:10.37,2013-05-06 19:40:00,
2013-05-06 20:50:00,50.9,26.8,30.03,SSW,203,0.0,0.0,39,0.00,CLR,CLR,0.00,WeatherDisplay:10.37,2013-05-06 19:50:00,
2013-05-06 21:00:00,49.8,25.8,30.03,South,191,0.0,4.0,39,0.00,CLR,CLR,0.00,WeatherDisplay:10.37,2013-05-06 20:00:00,
2013-05-06 21:10:00,49.1,25.8,30.03,South,179,3.0,4.0,40,0.00,CLR,CLR,0.00,WeatherDisplay:10.37,2013-05-06 20:10:00,
2013-05-06 21:20:00,48.6,25.3,30.03,South,177,0.0,0.0,40,0.00,CLR,CLR,0.00,WeatherDisplay:10.37,2013-05-06 20:20:00,
2013-05-06 21:31:00,47.5,24.4,30.03,SSE,153,0.0,3.0,40,0.00,CLR,CLR,0.00,WeatherDisplay:10.37,2013-05-06 20:31:00,
2013-05-06 21:46:00,46.9,24.4,30.03,SE,135,2.0,5.0,41,0.00,CLR,CLR,0.00,WeatherDisplay:10.37,2013-05-06 20:46:00,
2013-05-06 21:55:00,45.9,24.0,30.03,ESE,118,2.0,3.0,42,0.00,CLR,CLR,0.00,WeatherDisplay:10.37,2013-05-06 20:55:00,
2013-05-06 22:00:00,45.5,23.7,30.03,ESE,114,0.0,3.0,42,0.00,CLR,CLR,0.00,WeatherDisplay:10.37,2013-05-06 21:00:00,
2013-05-06 22:10:00,44.6,22.9,30.03,ESE,114,0.0,0.0,42,0.00,CLR,CLR,0.00,WeatherDisplay:10.37,2013-05-06 21:10:00,
2013-05-06 22:20:00,43.4,22.4,30.03,ESE,114,0.0,0.0,43,0.00,CLR,CLR,0.00,WeatherDisplay:10.37,2013-05-06 21:20:00,
2013-05-06 22:30:00,42.8,21.8,30.06,ESE,114,2.0,4.0,43,0.00,CLR,CLR,0.00,WeatherDisplay:10.37,2013-05-06 21:30:00,
2013-05-06 22:40:00,42.4,22.0,30.06,ESE,117,3.0,4.0,44,0.00,CLR,CLR,0.00,WeatherDisplay:10.37,2013-05-06 21:40:00,
2013-05-06 22:50:00,42.3,22.4,30.06,ESE,121,3.0,4.0,45,0.00,CLR,CLR,0.00,WeatherDisplay:10.37,2013-05-06 21:50:00,
2013-05-06 23:00:00,42.3,22.9,30.06,SE,144,0.0,4.0,46,0.00,CLR,CLR,0.00,WeatherDisplay:10.37,2013-05-06 22:00:00,
2013-05-06 23:05:00,42.3,22.9,30.06,South,169,0.0,0.0,46,0.00,CLR,CLR,0.00,WeatherDisplay:10.37,2013-05-06 22:05:00,
2013-05-06 23:10:00,42.4,23.6,30.06,South,169,0.0,0.0,47,0.00,CLR,CLR,0.00,WeatherDisplay:10.37,2013-05-06 22:10:00,
2013-05-06 23:20:00,42.8,24.4,30.06,SE,124,0.0,0.0,48,0.00,CLR,CLR,0.00,WeatherDisplay:10.37,2013-05-06 22:20:00,
2013-05-06 23:30:00,43.2,24.8,30.06,ESE,115,0.0,0.0,48,0.00,CLR,CLR,0.00,WeatherDisplay:10.37,2013-05-06 22:30:00,
2013-05-06 23:40:00,43.0,24.6,30.06,East,82,2.0,4.0,48,0.00,CLR,CLR,0.00,WeatherDisplay:10.37,2013-05-06 22:40:00,
2013-05-06 23:50:00,42.5,24.7,30.06,ESE,108,2.0,4.0,49,0.00,CLR,CLR,0.00,WeatherDisplay:10.37,2013-05-06 22:50:00,